Regional Weather Roundup
Issued by NWS Newport/Morehead, NC

Current Version | Previous Version | Text Only | Print | Product List | Glossary On
Versions: 1 2 3 4 5 6 7 8 9 10 11 12 13 14 15 16 17 18 19 20 21 22 23 24 25 26 27 28 29 30 31 32 33 34 35 36 37 38 39 40 41 42 43 44 45 46 47 48 49 50
000
ASUS42 KMHX 290510
RWRMHX
WEATHER ROUNDUP FOR EASTERN NORTH CAROLINA
NATIONAL WEATHER SERVICE NEWPORT/MOREHEAD CITY NC
1200 AM EST THU JAN 29 2015

NOTE: "FAIR" INDICATES FEW OR NO CLOUDS BELOW 12,000 FEET
WITH NO SIGNIFICANT WEATHER AND/OR OBSTRUCTIONS TO VISIBILITY

NCZ015>017-031-032-045>047-102-103-290600-
NORTH COAST

CITY           SKY/WX    TMP DP  RH WIND       PRES   REMARKS
EDENTON        CLEAR     30  14  52 N3        30.34S
ELIZABETH CITY CLEAR     31  14  49 N8        30.34R
KITTY HAWK     CLEAR     33  17  52 NW5       30.30S
MANTEO         CLEAR     34  19  55 N9        30.32S

$$

NCZ045>047-081-094-103-104-290600-
CENTRAL COAST

CITY           SKY/WX    TMP DP  RH WIND       PRES   REMARKS
FRISCO         CLEAR     36  16  44 MISG      30.31S
SWANQUARTER    NOT AVBL

$$

NCZ095-097-098-100-101-290600-
SOUTHERN COAST

CITY           SKY/WX    TMP DP  RH WIND       PRES   REMARKS
BEAUFORT       CLEAR     32  19  58 N7        30.33S
CEDAR ISLAND   NOT AVBL
JACKSONVILLE   CLEAR     26  21  81 CALM      30.34S
PINEY ISLAND     N/A    N/A N/A N/A MISG      30.32S
WILMINGTON     CLEAR     26  23  88 S3        30.34S


$$

NCZ011>013-027>030-043-044-078>080-089-090>093-098-290600-
COASTAL PLAIN

CITY           SKY/WX    TMP DP  RH WIND       PRES   REMARKS
AHOSKIE        CLEAR     23  16  75 CALM      30.35F
CLINTON        CLEAR     26  24  92 CALM      30.35R
ELIZABETHTOWN  CLEAR     27  20  76 CALM      30.34S
GOLDSBORO      CLEAR     26  26  97 CALM      30.32S
GREENVILLE     CLEAR     23  23 100 CALM      30.35R
HAVELOCK       CLEAR     25  21  85 CALM      30.34S
KENANSVILLE    CLEAR     23  22  93 CALM      30.35S
KINSTON        CLEAR     24  19  83 CALM      30.35S
NEW BERN       CLEAR     27  19  72 CALM      30.34S
RICHLANDS      CLEAR     23  18  80 CALM      30.34S
ROCKY MOUNT    CLEAR     27  19  72 CALM      30.34S
WASHINGTON     CLEAR     24  17  76 CALM      30.34S
WHITEVILLE     CLEAR     28  21  75 CALM      30.34S

$$

AMZ130-135-150-152-154-156-158-170-250-252-270-ANZ085-086-088-633-658-670-290600-
MARINE OBSERVATIONS

STATION/POSITION TIME  TEMP    WIND        PRES    WAVE   SWELL
                       AIR SEA DIR/SP/G            HT/PER HT/PER
                 (UTC) (F)     (DEG/KT/KT) (MB)    (FT/S) (FT/S)
CHESAPEAKE LIGHT 0400   35     360/ 20/ 22 1026.8
64 E VA BEACH    0500   37 50  360/ 17/ 25 1024.7    7/ 6   3/12
DUCK             0500   36 42  350/ 16/ 19 1025.4
2 E DUCK         0500      42                N/A     5/13   2/13
10 NE DUCK       0500      45                N/A     6/13   2/13
OREGON INLET     0500   34 42  320/  8/ 11 1026.4
13E OREGON INLT  0500      45                N/A     7/13   3/13
HATTERAS CG      0500   39 44  360/ 15/ 19 1026.7
DIAMOND BUOY     0500   42 69  340/ 19/ 23 1025.6    8/10   7/10
17 S OCRACOKE    NOT AVBL
CAPE LOOKOUT     0400   39     340/  9/ 12 1026.6
BEAUFORT LAB     0500   35 46  340/  4/  6 1025.8
27 SE WRIGHTSVLE NOT AVBL
5 SE WRIGHTSVLE  0400   44 52   20/ 10/ 14 1027.1
225 S CAPE HAT   0406   56 71  340/ 17/ 23 1023.3   10/ 9   8/ 9
41 SE CHARLESTON 0500   49 66   20/ 14/ 21 1026.8    4/ 6   2/12

$$



USA.gov is the U.S. government's official web portal to all federal, state and local government web resources and services.